TimeEST,TemperatureF,Dew PointF,Humidity,Sea Level PressureIn,VisibilityMPH,Wind Direction,Wind SpeedMPH,Gust SpeedMPH,PrecipitationIn,Events,Conditions,WindDirDegrees,DateUTC
12:52 AM,15.1,-0.9,49,29.73,10.0,WNW,20.7,38.0,N/A,,Scattered Clouds,300,2013-02-18 05:52:00
1:52 AM,15.1,-0.9,49,29.75,10.0,WNW,18.4,29.9,N/A,,Clear,290,2013-02-18 06:52:00
2:52 AM,14.0,-0.9,52,29.78,10.0,WNW,18.4,29.9,N/A,,Scattered Clouds,300,2013-02-18 07:52:00
3:52 AM,14.0,-2.0,49,29.80,10.0,WNW,19.6,29.9,N/A,,Clear,300,2013-02-18 08:52:00
5:52 AM,12.9,-2.0,51,29.88,10.0,NW,15.0,26.5,N/A,,Clear,310,2013-02-18 10:52:00
6:52 AM,12.9,-2.0,51,29.93,10.0,NW,16.1,29.9,N/A,,Clear,320,2013-02-18 11:52:00
7:52 AM,15.1,-2.0,47,29.97,10.0,NW,11.5,24.2,N/A,,Clear,310,2013-02-18 12:52:00
8:52 AM,18.0,-0.0,45,30.00,10.0,NW,15.0,26.5,N/A,,Clear,310,2013-02-18 13:52:00
9:52 AM,21.0,-0.0,40,30.00,10.0,NW,21.9,32.2,N/A,,Clear,310,2013-02-18 14:52:00
10:52 AM,24.1,-2.0,32,30.01,10.0,WNW,26.5,33.4,N/A,,Clear,300,2013-02-18 15:52:00
11:52 AM,26.1,-2.0,30,30.02,10.0,WNW,17.3,29.9,N/A,,Clear,290,2013-02-18 16:52:00
12:52 PM,27.0,-0.9,30,30.02,10.0,WNW,24.2,39.1,N/A,,Clear,300,2013-02-18 17:52:00
1:52 PM,28.9,-2.0,26,30.02,10.0,NW,21.9,32.2,N/A,,Clear,320,2013-02-18 18:52:00
2:52 PM,30.0,-0.9,27,30.03,10.0,West,13.8,19.6,N/A,,Clear,280,2013-02-18 19:52:00
3:52 PM,30.9,-2.0,24,30.05,10.0,West,8.1,25.3,N/A,,Clear,280,2013-02-18 20:52:00
4:52 PM,28.9,-2.9,25,30.06,10.0,West,10.4,19.6,N/A,,Clear,280,2013-02-18 21:52:00
5:52 PM,27.0,-0.9,30,30.09,10.0,West,6.9,-,N/A,,Clear,280,2013-02-18 22:52:00
6:52 PM,26.1,-0.9,31,30.11,10.0,WNW,9.2,-,N/A,,Clear,290,2013-02-18 23:52:00
8:52 PM,24.1,-0.0,35,30.14,10.0,West,6.9,-,N/A,,Clear,280,2013-02-19 01:52:00
9:52 PM,24.1,-0.0,35,30.14,10.0,WNW,4.6,-,N/A,,Clear,290,2013-02-19 02:52:00
10:52 PM,23.0,1.0,39,30.16,10.0,West,4.6,-,N/A,,Clear,270,2013-02-19 03:52:00
11:52 PM,23.0,1.0,39,30.16,10.0,NW,4.6,-,N/A,,Clear,310,2013-02-19 04:52:00